User: anonymous   Login
Location: Unspecified
(0.0000°N, 0.0000°E)
Time: 10:24:40
(UTC+01:00)
Language:

Iridium 39 - Orbit

View from above orbital plane
View from above orbital plane
View from above satellite
View from above satellite

Ground track
Ground track

The orbit data is extracted from the following two-line orbital elements,

1 25042U 97069D   17057.51434217  .00000154  00000-0  37526-4 0  9998
2 25042  86.3883  66.4320 0017684 326.6296  33.3791 14.46130774 10725
Epoch (UTC): 26 February 2017 12:20:39
Eccentricity: 0.0017684
inclination: 86.3883°
perigee height: 726 km
apogee height: 751 km
right ascension of ascending node: 66.4320°
argument of perigee: 326.6296°
revolutions per day: 14.46130774
mean anomaly at epoch: 33.3791°
orbit number at epoch: 1072

The dashed part of the orbit path shows where the satellite is in the earth's shadow,  

DLR